EDW17A LSZH-BKPR

Flight info

Callsign EDW17A
Flight time 1h 37m
Altitude 41000
Route DEGES Z2 XEBIX L607 ELMEM N606 GIRIS DCT PEVAL DCT OKLAX DCT RINAV DCT ARBER ARBER1A
Aircraft A343/H-SDE2E3FGHIJ4J5M1P2RWXYZ/LB1D1

Departure

Time 2026-05-07 17:31
Airport Zürich Airport (LSZH)

Arrival

Time 2026-05-07 19:08
Airport Priština Adem Jashari International Airport (BKPR)
Time Latitude Longitude Altitude Speed Heading
2026-05-07 16:51 47.45175 8.55806 1411 ft 0 kts 187°
2026-05-07 17:19 47.45185 8.55807 1411 ft 4 kts 182°
2026-05-07 17:20 47.45212 8.55805 1413 ft 4 kts 166°
2026-05-07 17:20 47.45236 8.55791 1419 ft 4 kts 144°
2026-05-07 17:20 47.45255 8.55764 1418 ft 4 kts 122°
2026-05-07 17:20 47.45266 8.55728 1414 ft 4 kts 105°
2026-05-07 17:21 47.45271 8.55689 1411 ft 4 kts 94°
2026-05-07 17:21 47.45272 8.55650 1411 ft 4 kts 90°
2026-05-07 17:21 47.45273 8.55611 1416 ft 4 kts 86°
2026-05-07 17:21 47.45267 8.55576 1410 ft 4 kts 43°
2026-05-07 17:22 47.45246 8.55566 1410 ft 4 kts 343°
2026-05-07 17:22 47.45222 8.55582 1418 ft 4 kts 328°
2026-05-07 17:22 47.45199 8.55603 1418 ft 4 kts 331°
2026-05-07 17:22 47.45192 8.55609 1416 ft 0 kts 335°
2026-05-07 17:25 47.45194 8.55607 1409 ft 2 kts 335°
2026-05-07 17:26 47.45256 8.55577 1413 ft 17 kts 346°
2026-05-07 17:26 47.45400 8.55491 1416 ft 27 kts 335°
2026-05-07 17:26 47.45580 8.55368 1407 ft 27 kts 335°
2026-05-07 17:26 47.45665 8.55388 1411 ft 10 kts 65°
2026-05-07 17:27 47.45664 8.55501 1408 ft 13 kts 95°
2026-05-07 17:27 47.45653 8.55663 1411 ft 18 kts 95°
2026-05-07 17:27 47.45637 8.55880 1414 ft 25 kts 96°
2026-05-07 17:27 47.45617 8.56172 1422 ft 32 kts 96°
2026-05-07 17:28 47.45595 8.56474 1421 ft 29 kts 96°
2026-05-07 17:28 47.45575 8.56735 1428 ft 22 kts 96°
2026-05-07 17:28 47.45563 8.56934 1425 ft 16 kts 87°
2026-05-07 17:28 47.45614 8.57008 1428 ft 9 kts
2026-05-07 17:29 47.45661 8.56980 1428 ft 8 kts 298°
2026-05-07 17:29 47.45671 8.56884 1427 ft 11 kts 275°
2026-05-07 17:29 47.45673 8.56865 1426 ft 0 kts 275°
2026-05-07 17:30 47.45674 8.56846 1426 ft 7 kts 275°
2026-05-07 17:30 47.45695 8.56551 1425 ft 58 kts 276°
2026-05-07 17:30 47.45759 8.55647 1409 ft 117 kts 276°
2026-05-07 17:30 47.45851 8.54219 1497 ft 153 kts 277°
2026-05-07 17:31 47.45925 8.52731 2265 ft 140 kts 276°
2026-05-07 17:31 47.45992 8.51285 2916 ft 144 kts 278°
2026-05-07 17:31 47.46102 8.49718 3410 ft 166 kts 279°
2026-05-07 17:31 47.46116 8.47881 3759 ft 194 kts 259°
2026-05-07 17:32 47.45387 8.46124 4357 ft 209 kts 223°
2026-05-07 17:32 47.44296 8.44645 4925 ft 222 kts 228°
2026-05-07 17:32 47.43547 8.42623 5784 ft 226 kts 252°
2026-05-07 17:32 47.43107 8.40423 6928 ft 221 kts 254°
2026-05-07 17:33 47.42609 8.38283 7959 ft 221 kts 242°
2026-05-07 17:33 47.41623 8.36560 8927 ft 223 kts 216°
2026-05-07 17:33 47.40172 8.35739 9931 ft 228 kts 188°
2026-05-07 17:33 47.38582 8.36074 10758 ft 239 kts 159°
2026-05-07 17:34 47.37265 8.37617 11548 ft 251 kts 128°
2026-05-07 17:34 47.36666 8.40035 12335 ft 262 kts 95°
2026-05-07 17:34 47.37047 8.42635 13148 ft 267 kts 59°
2026-05-07 17:34 47.38357 8.44541 13953 ft 267 kts 24°
2026-05-07 17:35 47.40078 8.45701 14468 ft 283 kts 28°
2026-05-07 17:35 47.41506 8.47834 14790 ft 305 kts 62°
2026-05-07 17:35 47.42096 8.50914 15153 ft 322 kts 85°
2026-05-07 17:35 47.42323 8.54276 15527 ft 338 kts 84°
2026-05-07 17:36 47.42689 8.57780 15892 ft 354 kts 80°
2026-05-07 17:36 47.43168 8.61227 16371 ft 364 kts 78°
2026-05-07 17:36 47.43743 8.64879 17019 ft 371 kts 77°
2026-05-07 17:36 47.44363 8.68608 17695 ft 377 kts 76°
2026-05-07 17:37 47.45011 8.72390 18364 ft 383 kts 76°
2026-05-07 17:37 47.45677 8.76230 18963 ft 388 kts 76°
2026-05-07 17:37 47.46309 8.80131 19595 ft 393 kts 80°
2026-05-07 17:37 47.46414 8.84160 20239 ft 395 kts 98°
2026-05-07 17:38 47.46039 8.88206 20859 ft 399 kts 94°
2026-05-07 17:38 47.46400 8.92274 21475 ft 403 kts 71°
2026-05-07 17:38 47.47506 8.96085 22095 ft 406 kts 64°
2026-05-07 17:38 47.48538 8.99984 22656 ft 411 kts 76°
2026-05-07 17:39 47.48969 9.04082 23257 ft 414 kts 83°
2026-05-07 17:39 47.49283 9.08356 23816 ft 417 kts 85°
2026-05-07 17:39 47.49458 9.12663 24268 ft 421 kts 88°
2026-05-07 17:39 47.49468 9.17007 24712 ft 425 kts 91°
2026-05-07 17:40 47.49347 9.21397 25161 ft 429 kts 93°
2026-05-07 17:40 47.49146 9.25808 25588 ft 433 kts 94°
2026-05-07 17:40 47.48988 9.28759 25875 ft 435 kts 95°
2026-05-07 17:40 47.48702 9.33828 26365 ft 439 kts 95°
2026-05-07 17:41 47.48365 9.39829 26914 ft 444 kts 95°
2026-05-07 17:41 47.48196 9.42901 27183 ft 447 kts 94°
2026-05-07 17:41 47.47946 9.47510 27588 ft 450 kts 94°
2026-05-07 17:41 47.47699 9.52136 27992 ft 453 kts 94°
2026-05-07 17:42 47.47451 9.56803 28408 ft 457 kts 94°
2026-05-07 17:42 47.47205 9.61426 28773 ft 460 kts 94°
2026-05-07 17:42 47.46951 9.66145 29213 ft 462 kts 94°
2026-05-07 17:42 47.46694 9.70890 29626 ft 464 kts 94°
2026-05-07 17:43 47.46433 9.75671 29972 ft 468 kts 94°
2026-05-07 17:43 47.46090 9.80465 30282 ft 471 kts 98°
2026-05-07 17:43 47.45560 9.85249 30572 ft 474 kts 99°
2026-05-07 17:43 47.45057 9.90071 30849 ft 477 kts 98°
2026-05-07 17:44 47.44676 9.94965 31147 ft 480 kts 95°
2026-05-07 17:44 47.44420 9.99893 31432 ft 483 kts 93°
2026-05-07 17:44 47.44254 10.04793 31707 ft 485 kts 92°
2026-05-07 17:44 47.44135 10.09785 31977 ft 488 kts 91°
2026-05-07 17:45 47.44036 10.14807 32255 ft 491 kts 91°
2026-05-07 17:45 47.43938 10.19847 32603 ft 492 kts 92°
2026-05-07 17:45 47.43589 10.24862 32933 ft 492 kts 100°
2026-05-07 17:45 47.42918 10.29818 33280 ft 492 kts 104°
2026-05-07 17:46 47.42117 10.34741 33619 ft 492 kts 105°
2026-05-07 17:46 47.41020 10.39512 33954 ft 491 kts 115°
2026-05-07 17:46 47.39467 10.43977 34264 ft 488 kts 124°
2026-05-07 17:46 47.37461 10.47999 34493 ft 485 kts 135°
2026-05-07 17:47 47.35043 10.51415 34791 ft 479 kts 146°
2026-05-07 17:47 47.32343 10.54113 35122 ft 473 kts 153°
2026-05-07 17:47 47.29465 10.56540 35333 ft 473 kts 155°
2026-05-07 17:47 47.26596 10.58820 35590 ft 472 kts 156°
2026-05-07 17:48 47.23692 10.61070 35924 ft 470 kts 157°
2026-05-07 17:48 47.20797 10.63301 36183 ft 470 kts 157°
2026-05-07 17:48 47.17893 10.65490 36474 ft 468 kts 160°
2026-05-07 17:48 47.14904 10.67321 36778 ft 465 kts 163°
2026-05-07 17:49 47.11894 10.69039 37058 ft 464 kts 163°
2026-05-07 17:49 47.08906 10.70694 37327 ft 464 kts 164°
2026-05-07 17:49 47.05884 10.72343 37607 ft 463 kts 164°
2026-05-07 17:49 47.02863 10.73982 37819 ft 463 kts 164°
2026-05-07 17:50 46.99844 10.75634 38114 ft 463 kts 164°
2026-05-07 17:50 46.96842 10.77313 38451 ft 462 kts 163°
2026-05-07 17:50 46.93850 10.79005 38733 ft 461 kts 163°
2026-05-07 17:50 46.90855 10.80703 38940 ft 461 kts 163°
2026-05-07 17:51 46.84829 10.84108 39016 ft 465 kts 163°
2026-05-07 17:51 46.78947 10.87868 39020 ft 469 kts 154°
2026-05-07 17:52 46.73876 10.93956 39023 ft 478 kts 137°
2026-05-07 17:52 46.69438 11.01225 39015 ft 481 kts 134°
2026-05-07 17:53 46.65099 11.08648 39037 ft 481 kts 134°
2026-05-07 17:53 46.60747 11.16027 39036 ft 481 kts 135°
2026-05-07 17:54 46.56395 11.23320 39017 ft 480 kts 135°
2026-05-07 17:54 46.52006 11.30633 38939 ft 480 kts 135°
2026-05-07 17:55 46.47618 11.37924 38935 ft 480 kts 135°
2026-05-07 17:55 46.43214 11.45221 38944 ft 482 kts 135°
2026-05-07 17:56 46.38831 11.52464 38998 ft 481 kts 136°
2026-05-07 17:56 46.34429 11.59726 39001 ft 480 kts 136°
2026-05-07 17:57 46.30768 11.65753 38998 ft 479 kts 136°
2026-05-07 17:57 46.25613 11.74207 38995 ft 479 kts 136°
2026-05-07 17:58 46.21235 11.81368 38994 ft 479 kts 136°
2026-05-07 17:58 46.16821 11.88571 38989 ft 479 kts 136°
2026-05-07 17:59 46.12404 11.95757 38990 ft 479 kts 136°
2026-05-07 17:59 46.07980 12.02938 38989 ft 479 kts 136°
2026-05-07 18:00 46.03542 12.10120 38992 ft 480 kts 136°
2026-05-07 18:00 45.99133 12.17230 38987 ft 479 kts 136°
2026-05-07 18:01 45.94696 12.24385 38991 ft 479 kts 137°
2026-05-07 18:01 45.90252 12.31522 38970 ft 479 kts 137°
2026-05-07 18:02 45.83582 12.42200 38990 ft 479 kts 137°
2026-05-07 18:03 45.79167 12.49245 38990 ft 479 kts 137°
2026-05-07 18:03 45.74709 12.56341 38997 ft 478 kts 137°
2026-05-07 18:04 45.70256 12.63410 38982 ft 478 kts 137°
2026-05-07 18:04 45.65796 12.70473 38987 ft 479 kts 137°
2026-05-07 18:05 45.61336 12.77518 38993 ft 479 kts 137°
2026-05-07 18:05 45.56895 12.84514 38991 ft 478 kts 137°
2026-05-07 18:06 45.52417 12.91552 38996 ft 478 kts 137°
2026-05-07 18:06 45.47936 12.98575 38992 ft 478 kts 138°
2026-05-07 18:07 45.43465 13.05566 38996 ft 478 kts 138°
2026-05-07 18:07 45.38971 13.12574 38998 ft 479 kts 138°
2026-05-07 18:08 45.34511 13.19510 39002 ft 479 kts 138°
2026-05-07 18:08 45.30195 13.26770 39002 ft 484 kts 131°
2026-05-07 18:09 45.26272 13.34539 39012 ft 485 kts 130°
2026-05-07 18:09 45.22400 13.42405 39014 ft 485 kts 130°
2026-05-07 18:10 45.18566 13.50184 39012 ft 485 kts 130°
2026-05-07 18:10 45.14689 13.58002 39006 ft 485 kts 130°
2026-05-07 18:11 45.10788 13.65830 39021 ft 486 kts 130°
2026-05-07 18:11 45.06890 13.73630 39019 ft 486 kts 130°
2026-05-07 18:12 45.02988 13.81419 39032 ft 486 kts 130°
2026-05-07 18:12 44.99101 13.89156 39012 ft 485 kts 131°
2026-05-07 18:13 44.95196 13.96910 39020 ft 485 kts 131°
2026-05-07 18:13 44.91284 14.04654 39018 ft 484 kts 131°
2026-05-07 18:14 44.87365 14.12392 39027 ft 486 kts 131°
2026-05-07 18:14 44.83452 14.20094 39014 ft 487 kts 131°
2026-05-07 18:15 44.79505 14.27846 39025 ft 488 kts 131°
2026-05-07 18:15 44.75546 14.35603 39025 ft 488 kts 131°
2026-05-07 18:16 44.71580 14.43350 39024 ft 488 kts 131°
2026-05-07 18:16 44.67642 14.51024 39017 ft 488 kts 131°
2026-05-07 18:17 44.63674 14.58733 39006 ft 487 kts 131°
2026-05-07 18:17 44.59696 14.66440 39029 ft 489 kts 131°
2026-05-07 18:18 44.55698 14.74165 39029 ft 489 kts 131°
2026-05-07 18:18 44.51723 14.81828 39035 ft 489 kts 131°
2026-05-07 18:19 44.47720 14.89524 39031 ft 489 kts 131°
2026-05-07 18:19 44.43703 14.97225 39035 ft 489 kts 131°
2026-05-07 18:20 44.39685 15.04908 39032 ft 489 kts 131°
2026-05-07 18:20 44.35669 15.12567 39018 ft 490 kts 131°
2026-05-07 18:21 44.31657 15.20197 39034 ft 491 kts 131°
2026-05-07 18:21 44.27607 15.27883 39043 ft 491 kts 131°
2026-05-07 18:22 44.23551 15.35556 39047 ft 491 kts 132°
2026-05-07 18:22 44.19496 15.43208 39032 ft 491 kts 132°
2026-05-07 18:23 44.15462 15.50801 39047 ft 491 kts 132°
2026-05-07 18:23 44.11386 15.58451 39034 ft 493 kts 132°
2026-05-07 18:24 44.07264 15.66160 39047 ft 500 kts 132°
2026-05-07 18:24 44.03115 15.73908 39043 ft 499 kts 132°
2026-05-07 18:25 43.99005 15.81571 39045 ft 497 kts 132°
2026-05-07 18:25 43.94875 15.89244 39048 ft 497 kts 132°
2026-05-07 18:26 43.90721 15.96939 39050 ft 497 kts 132°
2026-05-07 18:26 43.86566 16.04615 39043 ft 498 kts 132°
2026-05-07 18:27 43.82621 16.12544 39055 ft 503 kts 128°
2026-05-07 18:27 43.78893 16.20668 39055 ft 504 kts 127°
2026-05-07 18:28 43.75106 16.28825 39062 ft 501 kts 128°
2026-05-07 18:28 43.71308 16.36851 39068 ft 497 kts 128°
2026-05-07 18:29 43.67490 16.44836 39061 ft 498 kts 128°
2026-05-07 18:29 43.63679 16.52777 39059 ft 499 kts 128°
2026-05-07 18:30 43.59848 16.60750 39071 ft 499 kts 129°
2026-05-07 18:30 43.56014 16.68712 39079 ft 498 kts 129°
2026-05-07 18:31 43.52172 16.76668 39072 ft 499 kts 129°
2026-05-07 18:31 43.48347 16.84568 39079 ft 499 kts 129°
2026-05-07 18:32 43.44483 16.92527 39081 ft 500 kts 129°
2026-05-07 18:32 43.40618 17.00464 39076 ft 499 kts 129°
2026-05-07 18:33 43.36750 17.08389 39076 ft 500 kts 129°
2026-05-07 18:33 43.32870 17.16318 39083 ft 500 kts 129°
2026-05-07 18:34 43.28974 17.24254 39066 ft 501 kts 129°
2026-05-07 18:34 43.25080 17.32164 39082 ft 505 kts 129°
2026-05-07 18:35 43.21140 17.40148 39073 ft 506 kts 129°
2026-05-07 18:35 43.17195 17.48124 39077 ft 505 kts 129°
2026-05-07 18:36 43.13246 17.56088 39078 ft 505 kts 129°
2026-05-07 18:36 43.09323 17.63974 39081 ft 505 kts 129°
2026-05-07 18:37 43.05359 17.71921 39074 ft 505 kts 129°
2026-05-07 18:37 43.01394 17.79850 39065 ft 506 kts 129°
2026-05-07 18:38 42.97404 17.87804 39082 ft 508 kts 129°
2026-05-07 18:38 42.93408 17.95752 39088 ft 508 kts 129°
2026-05-07 18:39 42.89428 18.03648 39090 ft 508 kts 129°
2026-05-07 18:39 42.85434 18.11551 39086 ft 508 kts 129°
2026-05-07 18:40 42.81427 18.19459 39080 ft 508 kts 130°
2026-05-07 18:40 42.77433 18.27320 39068 ft 507 kts 130°
2026-05-07 18:41 42.73417 18.35202 39062 ft 507 kts 130°
2026-05-07 18:41 42.69379 18.43102 39047 ft 511 kts 131°
2026-05-07 18:42 42.65289 18.51083 39069 ft 516 kts 131°
2026-05-07 18:42 42.61184 18.59077 39085 ft 517 kts 131°
2026-05-07 18:43 42.57058 18.67092 39082 ft 518 kts 131°
2026-05-07 18:43 42.52948 18.75049 39093 ft 518 kts 131°
2026-05-07 18:44 42.48818 18.83029 39086 ft 518 kts 131°
2026-05-07 18:44 42.46746 18.87027 38931 ft 516 kts 131°
2026-05-07 18:44 42.44677 18.91011 38157 ft 520 kts 131°
2026-05-07 18:44 42.42594 18.95013 37344 ft 516 kts 131°
2026-05-07 18:45 42.40564 18.98926 36826 ft 500 kts 131°
2026-05-07 18:45 42.38577 19.02750 36334 ft 497 kts 131°
2026-05-07 18:45 42.36576 19.06579 35806 ft 498 kts 131°
2026-05-07 18:45 42.34603 19.10346 35262 ft 500 kts 131°
2026-05-07 18:46 42.32590 19.14180 34688 ft 502 kts 130°
2026-05-07 18:46 42.30554 19.18053 34036 ft 506 kts 130°
2026-05-07 18:46 42.28515 19.21933 33302 ft 509 kts 130°
2026-05-07 18:46 42.26465 19.25832 32610 ft 509 kts 129°
2026-05-07 18:47 42.24414 19.29733 31901 ft 509 kts 129°
2026-05-07 18:47 42.22361 19.33633 31269 ft 508 kts 129°
2026-05-07 18:47 42.20331 19.37488 30785 ft 502 kts 129°
2026-05-07 18:47 42.18316 19.41311 30278 ft 498 kts 129°
2026-05-07 18:48 42.16318 19.45092 29726 ft 493 kts 129°
2026-05-07 18:48 42.14366 19.48781 29183 ft 487 kts 128°
2026-05-07 18:48 42.12411 19.52471 28687 ft 481 kts 128°
2026-05-07 18:48 42.10479 19.56110 28201 ft 475 kts 128°
2026-05-07 18:49 42.08571 19.59702 27715 ft 469 kts 128°
2026-05-07 18:49 42.06680 19.63256 27218 ft 465 kts 128°
2026-05-07 18:49 42.04805 19.66775 26722 ft 460 kts 129°
2026-05-07 18:49 42.02946 19.70261 26212 ft 456 kts 129°
2026-05-07 18:50 42.01133 19.73732 25723 ft 450 kts 124°
2026-05-07 18:50 41.99845 19.77429 25318 ft 439 kts 109°
2026-05-07 18:50 41.99356 19.81461 24856 ft 439 kts 90°
2026-05-07 18:50 41.99762 19.85516 24386 ft 437 kts 76°
2026-05-07 18:51 42.00549 19.89453 23908 ft 435 kts 74°
2026-05-07 18:51 42.01380 19.93356 23425 ft 433 kts 74°
2026-05-07 18:51 42.02201 19.97228 22917 ft 428 kts 74°
2026-05-07 18:51 42.03008 20.01059 22444 ft 424 kts 74°
2026-05-07 18:52 42.03803 20.04864 21986 ft 420 kts 74°
2026-05-07 18:52 42.04576 20.08580 21553 ft 417 kts 74°
2026-05-07 18:52 42.05364 20.12375 21061 ft 414 kts 74°
2026-05-07 18:52 42.06122 20.16038 20621 ft 409 kts 74°
2026-05-07 18:53 42.06882 20.19712 20181 ft 406 kts 74°
2026-05-07 18:53 42.07632 20.23354 19734 ft 403 kts 74°
2026-05-07 18:53 42.08379 20.26984 19290 ft 401 kts 74°
2026-05-07 18:53 42.09118 20.30579 18848 ft 398 kts 75°
2026-05-07 18:54 42.09851 20.34156 18398 ft 395 kts 74°
2026-05-07 18:54 42.10578 20.37709 17897 ft 392 kts 75°
2026-05-07 18:54 42.11299 20.41236 17447 ft 389 kts 75°
2026-05-07 18:54 42.12006 20.44674 17016 ft 386 kts 74°
2026-05-07 18:55 42.13060 20.47976 16583 ft 382 kts 56°
2026-05-07 18:55 42.14846 20.50543 16151 ft 375 kts 33°
2026-05-07 18:55 42.17119 20.52199 15737 ft 370 kts 21°
2026-05-07 18:55 42.19479 20.53570 15314 ft 367 kts 20°
2026-05-07 18:56 42.21826 20.54910 14902 ft 365 kts 20°
2026-05-07 18:56 42.24151 20.56248 14485 ft 363 kts 20°
2026-05-07 18:56 42.26470 20.57582 14072 ft 361 kts 20°
2026-05-07 18:56 42.28737 20.58900 13646 ft 359 kts 20°
2026-05-07 18:57 42.31022 20.60236 13236 ft 357 kts 21°
2026-05-07 18:57 42.33292 20.61566 12836 ft 355 kts 20°
2026-05-07 18:57 42.35559 20.62894 12434 ft 354 kts 20°
2026-05-07 18:57 42.37816 20.64217 12024 ft 353 kts 20°
2026-05-07 18:58 42.40069 20.65539 11618 ft 352 kts 20°
2026-05-07 18:58 42.42315 20.66857 11192 ft 351 kts 20°
2026-05-07 18:58 42.44548 20.68172 10757 ft 349 kts 20°
2026-05-07 18:58 42.46767 20.69473 10456 ft 343 kts 20°
2026-05-07 18:59 42.48887 20.70720 10332 ft 331 kts 20°
2026-05-07 18:59 42.50971 20.71950 10211 ft 321 kts 20°
2026-05-07 18:59 42.52983 20.73138 10123 ft 310 kts 20°
2026-05-07 18:59 42.54947 20.74294 9871 ft 306 kts 20°
2026-05-07 19:00 42.56895 20.75443 9517 ft 305 kts 20°
2026-05-07 19:00 42.58835 20.76588 9190 ft 303 kts 21°
2026-05-07 19:00 42.60761 20.77727 8864 ft 301 kts 21°
2026-05-07 19:00 42.62651 20.78845 8560 ft 299 kts 21°
2026-05-07 19:01 42.64549 20.79973 8207 ft 298 kts 21°
2026-05-07 19:01 42.66441 20.81093 7893 ft 295 kts 20°
2026-05-07 19:01 42.68327 20.82204 7671 ft 293 kts 20°
2026-05-07 19:01 42.70169 20.83296 7550 ft 284 kts 21°
2026-05-07 19:02 42.71939 20.84349 7369 ft 270 kts 21°
2026-05-07 19:02 42.73544 20.85533 6960 ft 260 kts 38°
2026-05-07 19:02 42.74583 20.87490 6649 ft 256 kts 72°
2026-05-07 19:02 42.74892 20.89844 6341 ft 254 kts 87°
2026-05-07 19:03 42.75014 20.92218 6108 ft 253 kts 89°
2026-05-07 19:03 42.75129 20.94599 5854 ft 251 kts 88°
2026-05-07 19:03 42.75252 20.96963 5585 ft 250 kts 88°
2026-05-07 19:03 42.75204 20.99278 5118 ft 241 kts 107°
2026-05-07 19:04 42.74359 21.01144 4529 ft 232 kts 146°
2026-05-07 19:04 42.72946 21.02063 4259 ft 217 kts 165°
2026-05-07 19:04 42.71535 21.02306 4083 ft 194 kts 182°
2026-05-07 19:04 42.70246 21.02330 3992 ft 177 kts 179°
2026-05-07 19:05 42.69073 21.02476 3859 ft 163 kts 177°
2026-05-07 19:05 42.67997 21.02586 3658 ft 151 kts 178°
2026-05-07 19:05 42.66997 21.02676 3490 ft 136 kts 178°
2026-05-07 19:05 42.66073 21.02764 3309 ft 131 kts 176°
2026-05-07 19:06 42.65157 21.02852 3129 ft 132 kts 176°
2026-05-07 19:06 42.63329 21.03026 2770 ft 131 kts 175°
2026-05-07 19:06 42.62419 21.03113 2583 ft 131 kts 175°
2026-05-07 19:07 42.61506 21.03188 2404 ft 131 kts 176°
2026-05-07 19:07 42.60598 21.03258 2230 ft 130 kts 174°
2026-05-07 19:07 42.59713 21.03360 2047 ft 129 kts 175°
2026-05-07 19:07 42.58818 21.03438 1890 ft 130 kts 176°
2026-05-07 19:08 42.57932 21.03531 1791 ft 116 kts 176°
2026-05-07 19:08 42.57417 21.03575 1790 ft 40 kts 175°
2026-05-07 19:08 42.57151 21.03603 1791 ft 37 kts 175°
2026-05-07 19:08 42.56886 21.03629 1788 ft 38 kts 178°
2026-05-07 19:09 42.56637 21.03540 1785 ft 34 kts 205°
2026-05-07 19:09 42.56553 21.03481 1786 ft 6 kts 216°
2026-05-07 19:09 42.56554 21.03457 1786 ft 5 kts 284°
2026-05-07 19:09 42.56624 21.03412 1787 ft 15 kts 354°
2026-05-07 19:10 42.56737 21.03399 1786 ft 18 kts 355°
2026-05-07 19:10 42.56865 21.03386 1788 ft 18 kts 355°
2026-05-07 19:10 42.56988 21.03374 1790 ft 18 kts 355°
2026-05-07 19:10 42.57116 21.03360 1789 ft 19 kts 355°
2026-05-07 19:11 42.57242 21.03347 1791 ft 14 kts 355°
2026-05-07 19:11 42.57310 21.03322 1789 ft 10 kts 320°
2026-05-07 19:11 42.57349 21.03250 1791 ft 10 kts 331°
2026-05-07 19:11 42.57414 21.03230 1791 ft 8 kts 343°
2026-05-07 19:12 42.57420 21.03210 1790 ft 2 kts 265°
2026-05-07 19:12 42.57418 21.03167 1791 ft 5 kts 267°
2026-05-07 19:12 42.57417 21.03142 1791 ft 2 kts 266°
2026-05-07 19:12 42.57417 21.03138 1791 ft 0 kts 266°